Regional Weather Roundup
Issued by NWS Midland/Odessa, TX

Skip options and go directly to product.
Home | Oldest Version | Previous Version | Current Version | All | Graphics & Text | Save Text | Print | Product List | Glossary On

Skip product version selection by date and time.   
521
ASUS44 KMAF 031510
RWRMAF
MIDLAND AREA WEATHER ROUNDUP
NATIONAL WEATHER SERVICE MIDLAND TX
1000 AM CDT MON AUG 03 2015

...IN SOUTHWEST TEXAS AND SOUTHEAST NEW MEXICO...

CITY           SKY/WX    TMP DP  RH WIND       PRES   REMARKS
ALPINE         SUNNY     80  57  44 CALM      30.16S
ANDREWS        FAIR      80  61  53 S13       30.01F
ARTESIA        PTSUNNY   77  64  65 NW8       30.05S
BIG SPRING     CLOUDY    75  59  57 SE7       30.04S
CARLSBAD       PTSUNNY   80  63  55 NW9       30.02R
DRYDEN           N/A     85  63  47 VRB5      29.97R
FORT STOCKTON  MOSUNNY   84  59  42 S7        30.00R
GUAD PASS      MOSUNNY   72  60  66 VRB3      30.18R
HOBBS          SUNNY     81  63  54 SE9       30.05S
MARFA          SUNNY     75  57  53 S7        30.15S
MIDLAND AIRPK  LGT RAIN  75  65  69 S10       30.02F
MIDLAND INTL   LGT RAIN  74  66  76 SE12      30.01F
ODESSA         CLOUDY    76  61  59 MISG      30.01F
PECOS          MOSUNNY   83  61  47 NW3       29.97R
PRESIDIO       FAIR      89  56  33 E8        29.99F
SEMINOLE       MOSUNNY   83  59  43 S9        30.04S
SNYDER         PTSUNNY   82  62  51 S12       30.01R
WINK           PTSUNNY   81  59  47 SE13      29.98R
$$
...OTHER STATIONS IN TEXAS...

CITY           SKY/WX    TMP DP  RH WIND       PRES   REMARKS
ABILENE        MOSUNNY   84  61  45 SW6       29.98S
AMARILLO       MOSUNNY   73  66  78 SE13      30.06S
AUSTIN         MOSUNNY   86  67  52 NW5       29.93S
BROWNSVILLE    MOSUNNY   87  74  64 S16G24    29.90R
CORPUS CHRISTI PTSUNNY   87  74  64 S9        29.91R
DALLAS FTW     PTSUNNY   88  61  40 CALM      29.94R
DEL RIO        SUNNY     85  70  60 SE7       29.92S
EL PASO        PTSUNNY   76  63  64 CALM      30.07R
HOUSTON INT    MOSUNNY   87  71  58 W6        29.92S
LUBBOCK        PTSUNNY   77  66  68 E6        30.03F
SAN ANGELO     MOSUNNY   87  65  47 S10       29.98R
SAN ANTONIO    SUNNY     85  71  63 NW3       29.94S
WACO           SUNNY     87  65  47 SW8       29.94S
WICHITA FALLS  NOT AVBL
$$
...OTHER LOCATIONS IN NEW MEXICO...

CITY           SKY/WX    TMP DP  RH WIND       PRES   REMARKS
ALAMAGORDO     MOSUNNY   75  63  64 S7        30.10R
ALBUQUERQUE    MOSUNNY   69  59  70 CALM      30.19R
CANNON AFB     PTSUNNY   74  64  71 S7        30.06S
CLOVIS         PTSUNNY   73  64  73 SE9       30.07S
HOLLOMAN AFB   PTSUNNY   77  61  56 VRB2      30.07R
ROSWELL        PTSUNNY   78  65  63 N5        30.04R
RUIDOSO          N/A    N/A N/A N/A MISG        N/A
SANTA FE       SUNNY     67  57  70 N10       30.23R
TRUTH OR CONSE MOSUNNY   75  59  57 W5        30.14R
TUCUMCARI      PTSUNNY   71  66  84 W6        30.04S
$$

USA.gov is the U.S. government's official web portal to all federal, state and local government web resources and services.